| time (UTC) | temp C | wind direction | speed KPH | gust KPH | rain 1hr cm | rain 24hr cm | rain mn cm | humidity % | barometer mb |
| 20260505130211 | 19 | 352 | 0.0 | 6.4 | 0.00 | 0.00 | 0.00 | 71 | 1030.5 |
| 20260505124701 | 18 | 166 | 4.8 | 11.3 | 0.00 | 0.00 | 0.00 | 73 | 1030.6 |
| 20260505124157 | 17 | 161 | 6.4 | 12.9 | 0.00 | 0.00 | 0.00 | 73 | 1030.7 |
| 20260505123653 | 18 | 169 | 0.0 | 6.4 | 0.00 | 0.00 | 0.00 | 72 | 1030.7 |
| 20260505123150 | 17 | 270 | 4.8 | 9.7 | 0.00 | 0.00 | 0.00 | 73 | 1030.7 |
| 20260505122646 | 17 | 232 | 3.2 | 6.4 | 0.00 | 0.00 | 0.00 | 74 | 1030.6 |
| 20260505122143 | 17 | 206 | 6.4 | 16.1 | 0.00 | 0.00 | 0.00 | 73 | 1030.6 |
| 20260505121635 | 17 | 5 | 0.0 | 6.4 | 0.00 | 0.00 | 0.00 | 73 | 1030.7 |
| 20260505121132 | 16 | 236 | 0.0 | 9.7 | 0.00 | 0.00 | 0.00 | 76 | 1030.5 |
| 20260505120627 | 17 | 282 | 3.2 | 4.8 | 0.00 | 0.00 | 0.00 | 76 | 1030.3 |
| 20260505120124 | 16 | 220 | 3.2 | 6.4 | 0.00 | 0.00 | 0.00 | 76 | 1030.5 |
| 20260505115618 | 18 | 270 | 0.0 | 1.6 | 0.00 | 0.00 | 0.00 | 71 | 1030.5 |
| 20260505115116 | 16 | 198 | 3.2 | 4.8 | 0.00 | 0.00 | 0.00 | 75 | 1030.4 |
| 20260505114612 | 16 | 257 | 0.0 | 3.2 | 0.00 | 0.00 | 0.00 | 77 | 1030.6 |
| 20260505114109 | 17 | 74 | 0.0 | 3.2 | 0.00 | 0.00 | 0.00 | 75 | 1030.3 |
| 20260505113605 | 16 | 189 | 0.0 | 6.4 | 0.00 | 0.00 | 0.00 | 78 | 1030.3 |
| 20260505113102 | 16 | 144 | 3.2 | 6.4 | 0.00 | 0.00 | 0.00 | 78 | 1030.4 |
| 20260505112558 | 15 | 220 | 0.0 | 3.2 | 0.00 | 0.00 | 0.00 | 79 | 1030.3 |
| 20260505112056 | 15 | 229 | 3.2 | 6.4 | 0.00 | 0.00 | 0.00 | 80 | 1030.1 |
| 20260505111550 | 14 | 253 | 0.0 | 3.2 | 0.00 | 0.00 | 0.00 | 83 | 1030.2 |
| 20260505111046 | 14 | 195 | 0.0 | 3.2 | 0.00 | 0.00 | 0.00 | 84 | 1030.2 |
| 20260505110543 | 13 | 257 | 0.0 | 3.2 | 0.00 | 0.00 | 0.00 | 84 | 1030.1 |
| 20260505102015 | 13 | 166 | 0.0 | 4.8 | 0.00 | 0.00 | 0.00 | 84 | 1029.5 |
| 20260505101514 | 13 | 243 | 0.0 | 3.2 | 0.00 | 0.00 | 0.00 | 83 | 1029.6 |
| 20260505101010 | 13 | 142 | 3.2 | 3.2 | 0.00 | 0.00 | 0.00 | 83 | 1029.5 |
| 20260505100507 | 13 | 263 | 1.6 | 1.6 | 0.00 | 0.00 | 0.00 | 83 | 1029.5 |
| 20260505100004 | 13 | 194 | 0.0 | 4.8 | 0.00 | 0.00 | 0.00 | 82 | 1029.5 |
| 20260505095500 | 13 | 215 | 0.0 | 1.6 | 0.00 | 0.00 | 0.00 | 82 | 1029.3 |
| 20260505094956 | 13 | 81 | 0.0 | 1.6 | 0.00 | 0.00 | 0.00 | 83 | 1029.1 |
| 20260505094453 | 13 | 114 | 1.6 | 3.2 | 0.00 | 0.00 | 0.00 | 83 | 1029.3 |
| 20260505093949 | 13 | 0 | 0.0 | 3.2 | 0.00 | 0.00 | 0.00 | 83 | 1029.1 |
| 20260505093446 | 13 | 203 | 0.0 | 1.6 | 0.00 | 0.00 | 0.00 | 83 | 1029.2 |
| 20260505092943 | 13 | 166 | 4.8 | 9.7 | 0.00 | 0.00 | 0.00 | 83 | 1029.3 |
| 20260505092441 | 13 | 340 | 1.6 | 4.8 | 0.00 | 0.00 | 0.00 | 84 | 1029.0 |
| 20260505091938 | 13 | 270 | 0.0 | 1.6 | 0.00 | 0.00 | 0.00 | 83 | 1029.0 |
| 20260505091436 | 13 | 234 | 0.0 | 3.2 | 0.00 | 0.00 | 0.00 | 83 | 1029.2 |
| 20260505090933 | 13 | 203 | 0.0 | 3.2 | 0.00 | 0.00 | 0.00 | 83 | 1029.1 |
| 20260505090432 | 13 | 82 | 0.0 | 1.6 | 0.00 | 0.00 | 0.00 | 82 | 1029.2 |
| 20260505085928 | 13 | 278 | 0.0 | 4.8 | 0.00 | 0.00 | 0.00 | 82 | 1029.3 |
| 20260505085426 | 13 | 250 | 0.0 | 3.2 | 0.00 | 0.00 | 0.00 | 83 | 1029.0 |
| 20260505084924 | 14 | 294 | 1.6 | 3.2 | 0.00 | 0.00 | 0.00 | 81 | 1029.2 |
| 20260505084422 | 14 | 246 | 1.6 | 3.2 | 0.00 | 0.00 | 0.00 | 81 | 1028.9 |
| 20260505083920 | 14 | 261 | 0.0 | 1.6 | 0.00 | 0.00 | 0.00 | 81 | 1029.0 |
| 20260505083417 | 15 | 203 | 1.6 | 4.8 | 0.00 | 0.00 | 0.00 | 78 | 1028.9 |
| 20260505082913 | 14 | 143 | 0.0 | 3.2 | 0.00 | 0.00 | 0.00 | 80 | 1028.9 |
| 20260505082409 | 14 | 257 | 6.4 | 6.4 | 0.00 | 0.00 | 0.00 | 80 | 1029.0 |
| 20260505081906 | 15 | 163 | 0.0 | 6.4 | 0.00 | 0.00 | 0.00 | 79 | 1028.9 |
| 20260505081403 | 15 | 270 | 4.8 | 6.4 | 0.00 | 0.00 | 0.00 | 80 | 1029.0 |
| 20260505080900 | 15 | 180 | 3.2 | 3.2 | 0.00 | 0.00 | 0.00 | 80 | 1029.0 |
| 20260505080355 | 15 | 237 | 0.0 | 3.2 | 0.00 | 0.00 | 0.00 | 80 | 1028.8 |
| 20260505075851 | 15 | 157 | 3.2 | 12.9 | 0.00 | 0.00 | 0.00 | 79 | 1028.9 |
| 20260505075348 | 15 | 214 | 3.2 | 4.8 | 0.00 | 0.00 | 0.00 | 81 | 1028.9 |
| 20260505074846 | 15 | 261 | 0.0 | 3.2 | 0.00 | 0.00 | 0.00 | 80 | 1028.5 |
| 20260505074343 | 15 | 180 | 0.0 | 1.6 | 0.00 | 0.00 | 0.00 | 80 | 1028.8 |
| 20260505073840 | 15 | 82 | 0.0 | 0.0 | 0.00 | 0.00 | 0.00 | 80 | 1028.7 |
| 20260505073338 | 15 | 82 | 0.0 | 1.6 | 0.00 | 0.00 | 0.00 | 79 | 1028.8 |
| 20260505072834 | 15 | 157 | 0.0 | 3.2 | 0.00 | 0.00 | 0.00 | 79 | 1028.6 |
| 20260505072331 | 15 | 248 | 3.2 | 4.8 | 0.00 | 0.00 | 0.00 | 78 | 1028.5 |
| 20260505071827 | 15 | 270 | 0.0 | 1.6 | 0.00 | 0.00 | 0.00 | 79 | 1028.7 |
| 20260505071323 | 15 | 172 | 0.0 | 3.2 | 0.00 | 0.00 | 0.00 | 78 | 1028.6 |
| 20260505070822 | 15 | 194 | 0.0 | 1.6 | 0.00 | 0.00 | 0.00 | 78 | 1028.5 |
| 20260505070318 | 15 | 285 | 1.6 | 1.6 | 0.00 | 0.00 | 0.00 | 78 | 1028.7 |
| 20260505065813 | 15 | 187 | 1.6 | 4.8 | 0.00 | 0.00 | 0.00 | 77 | 1028.6 |
| 20260505065310 | 16 | 180 | 3.2 | 8.0 | 0.00 | 0.00 | 0.00 | 76 | 1028.5 |
| 20260505064807 | 15 | 186 | 0.0 | 6.4 | 0.00 | 0.00 | 0.00 | 76 | 1028.4 |
| 20260505064304 | 16 | 99 | 0.0 | 3.2 | 0.00 | 0.00 | 0.00 | 76 | 1028.7 |
| 20260505063802 | 16 | 287 | 9.7 | 9.7 | 0.00 | 0.00 | 0.00 | 76 | 1028.6 |
| 20260505063258 | 16 | 357 | 4.8 | 8.0 | 0.00 | 0.00 | 0.00 | 76 | 1028.4 |
| 20260505062755 | 16 | 270 | 0.0 | 8.0 | 0.00 | 0.00 | 0.00 | 75 | 1028.7 |
| 20260505062252 | 16 | 195 | 0.0 | 3.2 | 0.00 | 0.00 | 0.00 | 75 | 1028.7 |
| 20260505061749 | 16 | 270 | 1.6 | 3.2 | 0.00 | 0.00 | 0.00 | 75 | 1028.4 |
| 20260505061247 | 16 | 169 | 0.0 | 4.8 | 0.00 | 0.00 | 0.00 | 74 | 1028.6 |
| 20260505060744 | 16 | 285 | 1.6 | 9.7 | 0.00 | 0.00 | 0.00 | 74 | 1028.5 |
| 20260505060241 | 16 | 169 | 6.4 | 8.0 | 0.00 | 0.00 | 0.00 | 73 | 1028.7 |
| 20260505055736 | 16 | 243 | 0.0 | 1.6 | 0.00 | 0.00 | 0.00 | 74 | 1028.6 |
| 20260505055233 | 16 | 228 | 3.2 | 9.7 | 0.00 | 0.00 | 0.00 | 73 | 1028.8 |
| 20260505054730 | 16 | 237 | 6.4 | 8.0 | 0.00 | 0.00 | 0.00 | 73 | 1028.5 |
| 20260505054228 | 16 | 187 | 0.0 | 4.8 | 0.00 | 0.00 | 0.00 | 73 | 1028.6 |
| 20260505053726 | 16 | 328 | 4.8 | 4.8 | 0.00 | 0.00 | 0.00 | 73 | 1028.5 |
| 20260505053222 | 17 | 157 | 4.8 | 6.4 | 0.00 | 0.00 | 0.00 | 72 | 1028.5 |
| 20260505052720 | 17 | 165 | 3.2 | 6.4 | 0.00 | 0.00 | 0.00 | 72 | 1028.6 |
| 20260505052216 | 17 | 348 | 1.6 | 3.2 | 0.00 | 0.00 | 0.00 | 73 | 1028.6 |
| 20260505051714 | 17 | 185 | 3.2 | 4.8 | 0.00 | 0.00 | 0.00 | 72 | 1028.6 |
| 20260505051212 | 17 | 289 | 3.2 | 6.4 | 0.00 | 0.00 | 0.00 | 71 | 1028.6 |
| 20260505050709 | 17 | 165 | 0.0 | 6.4 | 0.00 | 0.00 | 0.00 | 71 | 1028.4 |
| 20260505050207 | 17 | 243 | 0.0 | 4.8 | 0.00 | 0.00 | 0.00 | 72 | 1028.6 |
| 20260505041637 | 17 | 185 | 1.6 | 14.5 | 0.00 | 0.00 | 0.00 | 69 | 1028.6 |
| 20260505041134 | 17 | 209 | 3.2 | 8.0 | 0.00 | 0.00 | 0.00 | 69 | 1028.6 |
| 20260505040631 | 17 | 180 | 0.0 | 4.8 | 0.00 | 0.00 | 0.00 | 69 | 1028.5 |
| 20260505040128 | 18 | 270 | 0.0 | 3.2 | 0.00 | 0.00 | 0.00 | 69 | 1028.5 |
| 20260505035624 | 18 | 188 | 0.0 | 8.0 | 0.00 | 0.00 | 0.00 | 68 | 1028.4 |
| 20260505035121 | 18 | 289 | 0.0 | 6.4 | 0.00 | 0.00 | 0.00 | 68 | 1028.4 |
| 20260505034618 | 18 | 270 | 6.4 | 11.3 | 0.00 | 0.00 | 0.00 | 67 | 1028.6 |
| 20260505034114 | 18 | 237 | 3.2 | 9.7 | 0.00 | 0.00 | 0.00 | 67 | 1028.6 |
| 20260505033611 | 18 | 90 | 4.8 | 9.7 | 0.00 | 0.00 | 0.00 | 67 | 1028.5 |
| 20260505033110 | 18 | 277 | 4.8 | 6.4 | 0.00 | 0.00 | 0.00 | 66 | 1028.6 |
| 20260505032607 | 18 | 207 | 4.8 | 9.7 | 0.00 | 0.00 | 0.00 | 66 | 1028.4 |
| 20260505032103 | 18 | 303 | 3.2 | 9.7 | 0.00 | 0.00 | 0.00 | 65 | 1028.6 |
| 20260505031601 | 19 | 312 | 6.4 | 12.9 | 0.00 | 0.00 | 0.00 | 65 | 1028.6 |
| 20260505031057 | 19 | 228 | 3.2 | 6.4 | 0.00 | 0.00 | 0.00 | 64 | 1028.5 |
| 20260505030554 | 19 | 225 | 3.2 | 8.0 | 0.00 | 0.00 | 0.00 | 63 | 1028.6 |
| 20260505030050 | 19 | 264 | 1.6 | 12.9 | 0.00 | 0.00 | 0.00 | 62 | 1028.4 |
| 20260505025546 | 19 | 261 | 0.0 | 11.3 | 0.00 | 0.00 | 0.00 | 61 | 1028.5 |
| 20260505025045 | 19 | 165 | 0.0 | 4.8 | 0.00 | 0.00 | 0.00 | 60 | 1028.3 |
| 20260505024541 | 20 | 225 | 4.8 | 4.8 | 0.00 | 0.00 | 0.00 | 58 | 1028.5 |
| 20260505024038 | 20 | 14 | 6.4 | 8.0 | 0.00 | 0.00 | 0.00 | 56 | 1028.5 |
| 20260505023535 | 20 | 175 | 3.2 | 3.2 | 0.00 | 0.00 | 0.00 | 54 | 1028.5 |
| 20260505023033 | 20 | 128 | 0.0 | 6.4 | 0.00 | 0.00 | 0.00 | 54 | 1028.4 |
| 20260505022531 | 20 | 205 | 4.8 | 4.8 | 0.00 | 0.00 | 0.00 | 52 | 1028.5 |
| 20260505022027 | 20 | 60 | 3.2 | 6.4 | 0.00 | 0.00 | 0.00 | 51 | 1028.3 |
| 20260505021524 | 20 | 200 | 8.0 | 9.7 | 0.00 | 0.00 | 0.00 | 51 | 1028.3 |
| 20260505021021 | 20 | 292 | 3.2 | 4.8 | 0.00 | 0.00 | 0.00 | 52 | 1028.0 |
| 20260505020520 | 20 | 187 | 1.6 | 6.4 | 0.00 | 0.00 | 0.00 | 52 | 1028.1 |
| 20260505020018 | 20 | 185 | 1.6 | 16.1 | 0.00 | 0.00 | 0.00 | 50 | 1028.0 |
| 20260505015515 | 20 | 270 | 0.0 | 3.2 | 0.00 | 0.00 | 0.00 | 51 | 1028.0 |
| 20260505015012 | 21 | 310 | 4.8 | 4.8 | 0.00 | 0.00 | 0.00 | 50 | 1028.0 |
| 20260505014509 | 20 | 90 | 0.0 | 3.2 | 0.00 | 0.00 | 0.00 | 50 | 1027.8 |
| 20260505014006 | 21 | 185 | 0.0 | 4.8 | 0.00 | 0.00 | 0.00 | 50 | 1027.7 |
| 20260505013503 | 20 | 145 | 0.0 | 8.0 | 0.00 | 0.00 | 0.00 | 51 | 1027.8 |
| 20260505013000 | 20 | 209 | 0.0 | 6.4 | 0.00 | 0.00 | 0.00 | 51 | 1027.7 |
| 20260505012458 | 20 | 176 | 3.2 | 3.2 | 0.00 | 0.00 | 0.00 | 51 | 1027.6 |
| 20260505011955 | 20 | 253 | 3.2 | 3.2 | 0.00 | 0.00 | 0.00 | 51 | 1027.8 |
| 20260505011451 | 20 | 195 | 0.0 | 3.2 | 0.00 | 0.00 | 0.00 | 50 | 1027.3 |
| 20260505010948 | 20 | 294 | 0.0 | 1.6 | 0.00 | 0.00 | 0.00 | 50 | 1027.6 |
| 20260505010443 | 20 | 185 | 1.6 | 1.6 | 0.00 | 0.00 | 0.00 | 49 | 1027.6 |
| 20260505005940 | 20 | 194 | 0.0 | 3.2 | 0.00 | 0.00 | 0.00 | 49 | 1027.4 |
| 20260505005436 | 21 | 213 | 0.0 | 4.8 | 0.00 | 0.00 | 0.00 | 48 | 1027.2 |
| 20260505004934 | 20 | 12 | 1.6 | 3.2 | 0.00 | 0.00 | 0.00 | 48 | 1027.2 |
| 20260505004431 | 20 | 14 | 0.0 | 1.6 | 0.00 | 0.00 | 0.00 | 48 | 1027.3 |
| 20260505003928 | 21 | 195 | 0.0 | 4.8 | 0.00 | 0.00 | 0.00 | 46 | 1027.3 |
| 20260505003425 | 21 | 212 | 0.0 | 3.2 | 0.00 | 0.00 | 0.00 | 46 | 1027.1 |
| 20260505002921 | 21 | 253 | 3.2 | 4.8 | 0.00 | 0.00 | 0.00 | 45 | 1027.1 |
| 20260505002417 | 21 | 352 | 0.0 | 3.2 | 0.00 | 0.00 | 0.00 | 44 | 1027.0 |
| 20260505001916 | 21 | 203 | 0.0 | 1.6 | 0.00 | 0.00 | 0.00 | 45 | 1026.9 |
| 20260505001413 | 21 | 279 | 0.0 | 0.0 | 0.00 | 0.00 | 0.00 | 45 | 1026.7 |
| 20260505000910 | 21 | 180 | 0.0 | 0.0 | 0.00 | 0.00 | 0.00 | 44 | 1026.7 |
| 20260505000408 | 22 | 195 | 0.0 | 0.0 | 0.00 | 0.00 | 0.00 | 44 | 1026.7 |
| 20260504235904 | 22 | 195 | 0.0 | 1.6 | 0.00 | 0.00 | 0.00 | 43 | 1026.5 |
| 20260504235402 | 22 | 255 | 0.0 | 1.6 | 0.00 | 0.00 | 0.00 | 41 | 1026.6 |
| 20260504234857 | 23 | 255 | 0.0 | 3.2 | 0.00 | 0.00 | 0.00 | 40 | 1026.7 |
| 20260504234355 | 23 | 0 | 0.0 | 4.8 | 0.00 | 0.00 | 0.00 | 39 | 1026.6 |
| 20260504233852 | 23 | 236 | 0.0 | 3.2 | 0.00 | 0.00 | 0.00 | 39 | 1026.4 |
| 20260504233348 | 24 | 278 | 1.6 | 4.8 | 0.00 | 0.00 | 0.00 | 39 | 1026.5 |
| 20260504232844 | 24 | 255 | 0.0 | 4.8 | 0.00 | 0.00 | 0.00 | 37 | 1026.5 |
| 20260504232342 | 25 | 165 | 0.0 | 6.4 | 0.00 | 0.00 | 0.00 | 37 | 1026.5 |
| 20260504231838 | 25 | 278 | 1.6 | 4.8 | 0.00 | 0.00 | 0.00 | 37 | 1026.5 |
| 20260504231335 | 26 | 188 | 0.0 | 8.0 | 0.00 | 0.00 | 0.00 | 36 | 1026.3 |
| 20260504230831 | 26 | 283 | 1.6 | 4.8 | 0.00 | 0.00 | 0.00 | 36 | 1026.7 |
| 20260504230329 | 26 | 255 | 1.6 | 6.4 | 0.00 | 0.00 | 0.00 | 36 | 1026.4 |
| 20260504225827 | 26 | 74 | 0.0 | 3.2 | 0.00 | 0.00 | 0.00 | 35 | 1026.4 |
| 20260504225323 | 26 | 254 | 3.2 | 8.0 | 0.00 | 0.00 | 0.00 | 35 | 1026.5 |
| 20260504224821 | 26 | 346 | 1.6 | 4.8 | 0.00 | 0.00 | 0.00 | 35 | 1026.4 |
| 20260504224318 | 26 | 190 | 8.0 | 9.7 | 0.00 | 0.00 | 0.00 | 34 | 1026.3 |
| 20260504223815 | 26 | 225 | 0.0 | 9.7 | 0.00 | 0.00 | 0.00 | 35 | 1026.5 |
| 20260504223310 | 26 | 141 | 4.8 | 11.3 | 0.00 | 0.00 | 0.00 | 35 | 1026.5 |
| 20260504222807 | 26 | 283 | 6.4 | 6.4 | 0.00 | 0.00 | 0.00 | 35 | 1026.6 |
| 20260504222305 | 27 | 12 | 0.0 | 8.0 | 0.00 | 0.00 | 0.00 | 35 | 1026.5 |
| 20260504221802 | 27 | 289 | 6.4 | 6.4 | 0.00 | 0.00 | 0.00 | 35 | 1026.6 |
| 20260504221259 | 26 | 257 | 1.6 | 6.4 | 0.00 | 0.00 | 0.00 | 36 | 1026.7 |
| 20260504220755 | 27 | 10 | 0.0 | 4.8 | 0.00 | 0.00 | 0.00 | 35 | 1026.5 |
| 20260504220252 | 26 | 100 | 3.2 | 8.0 | 0.00 | 0.00 | 0.00 | 36 | 1026.5 |
| 20260504215750 | 27 | 322 | 4.8 | 6.4 | 0.00 | 0.00 | 0.00 | 35 | 1026.5 |
| 20260504215246 | 26 | 315 | 3.2 | 8.0 | 0.00 | 0.00 | 0.00 | 35 | 1026.4 |
| 20260504214742 | 27 | 254 | 6.4 | 9.7 | 0.00 | 0.00 | 0.00 | 35 | 1026.4 |
| 20260504214238 | 27 | 324 | 4.8 | 8.0 | 0.00 | 0.00 | 0.00 | 34 | 1026.5 |
| 20260504213736 | 27 | 172 | 0.0 | 9.7 | 0.00 | 0.00 | 0.00 | 34 | 1026.5 |
| 20260504213232 | 27 | 213 | 4.8 | 12.9 | 0.00 | 0.00 | 0.00 | 35 | 1026.5 |
| 20260504212729 | 27 | 233 | 0.0 | 9.7 | 0.00 | 0.00 | 0.00 | 36 | 1026.6 |
| 20260504212225 | 27 | 90 | 1.6 | 9.7 | 0.00 | 0.00 | 0.00 | 35 | 1026.5 |
| 20260504211723 | 27 | 180 | 0.0 | 11.3 | 0.00 | 0.00 | 0.00 | 35 | 1026.5 |
| 20260504211219 | 27 | 172 | 0.0 | 4.8 | 0.00 | 0.00 | 0.00 | 33 | 1026.4 |
| 20260504210717 | 27 | 322 | 6.4 | 9.7 | 0.00 | 0.00 | 0.00 | 34 | 1026.6 |
| 20260504210214 | 27 | 237 | 3.2 | 6.4 | 0.00 | 0.00 | 0.00 | 35 | 1026.6 |
| 20260504205711 | 27 | 189 | 6.4 | 16.1 | 0.00 | 0.00 | 0.00 | 35 | 1026.6 |
| 20260504205208 | 27 | 280 | 0.0 | 8.0 | 0.00 | 0.00 | 0.00 | 34 | 1026.4 |
| 20260504204706 | 27 | 172 | 3.2 | 17.7 | 0.00 | 0.00 | 0.00 | 34 | 1026.9 |
| 20260504204205 | 27 | 345 | 4.8 | 8.0 | 0.00 | 0.00 | 0.00 | 35 | 1026.7 |
| 20260504203703 | 27 | 228 | 0.0 | 12.9 | 0.00 | 0.00 | 0.00 | 35 | 1026.6 |
| 20260504203201 | 27 | 254 | 4.8 | 6.4 | 0.00 | 0.00 | 0.00 | 34 | 1026.9 |
| 20260504202700 | 27 | 270 | 9.7 | 14.5 | 0.00 | 0.00 | 0.00 | 34 | 1026.9 |
| 20260504202158 | 26 | 276 | 4.8 | 14.5 | 0.00 | 0.00 | 0.00 | 36 | 1027.0 |
| 20260504201654 | 26 | 285 | 4.8 | 19.3 | 0.00 | 0.00 | 0.00 | 35 | 1027.3 |
| 20260504201152 | 27 | 270 | 1.6 | 12.9 | 0.00 | 0.00 | 0.00 | 35 | 1027.1 |
| 20260504200649 | 27 | 321 | 6.4 | 6.4 | 0.00 | 0.00 | 0.00 | 35 | 1027.0 |
| 20260504200146 | 26 | 172 | 0.0 | 11.3 | 0.00 | 0.00 | 0.00 | 35 | 1027.0 |
| 20260504195641 | 27 | 222 | 4.8 | 6.4 | 0.00 | 0.00 | 0.00 | 35 | 1027.3 |
| 20260504195138 | 26 | 145 | 1.6 | 9.7 | 0.00 | 0.00 | 0.00 | 35 | 1027.5 |
| 20260504194635 | 26 | 274 | 4.8 | 8.0 | 0.00 | 0.00 | 0.00 | 35 | 1027.5 |
| 20260504194131 | 26 | 282 | 3.2 | 9.7 | 0.00 | 0.00 | 0.00 | 35 | 1027.4 |
| 20260504193627 | 27 | 246 | 3.2 | 8.0 | 0.00 | 0.00 | 0.00 | 34 | 1027.5 |
| 20260504193126 | 26 | 176 | 6.4 | 11.3 | 0.00 | 0.00 | 0.00 | 35 | 1027.4 |
| 20260504192623 | 26 | 240 | 0.0 | 9.7 | 0.00 | 0.00 | 0.00 | 35 | 1027.8 |
| 20260504192121 | 25 | 354 | 6.4 | 11.3 | 0.00 | 0.00 | 0.00 | 35 | 1027.9 |
| 20260504191619 | 26 | 48 | 3.2 | 9.7 | 0.00 | 0.00 | 0.00 | 35 | 1027.8 |
| 20260504191115 | 26 | 231 | 4.8 | 9.7 | 0.00 | 0.00 | 0.00 | 35 | 1028.0 |
| 20260504190612 | 26 | 230 | 0.0 | 11.3 | 0.00 | 0.00 | 0.00 | 36 | 1028.0 |
| 20260504190108 | 25 | 301 | 4.8 | 11.3 | 0.00 | 0.00 | 0.00 | 35 | 1027.9 |
| 20260504185605 | 26 | 36 | 3.2 | 8.0 | 0.00 | 0.00 | 0.00 | 35 | 1028.0 |
| 20260504185101 | 26 | 300 | 1.6 | 12.9 | 0.00 | 0.00 | 0.00 | 35 | 1028.0 |
| 20260504184557 | 26 | 219 | 4.8 | 9.7 | 0.00 | 0.00 | 0.00 | 37 | 1028.0 |
| 20260504184052 | 25 | 233 | 4.8 | 14.5 | 0.00 | 0.00 | 0.00 | 36 | 1028.1 |
| 20260504183550 | 25 | 267 | 0.0 | 9.7 | 0.00 | 0.00 | 0.00 | 37 | 1028.2 |
| 20260504183048 | 25 | 293 | 3.2 | 8.0 | 0.00 | 0.00 | 0.00 | 37 | 1028.6 |
| 20260504182544 | 25 | 254 | 8.0 | 8.0 | 0.00 | 0.00 | 0.00 | 37 | 1028.5 |
| 20260504182042 | 26 | 311 | 3.2 | 9.7 | 0.00 | 0.00 | 0.00 | 37 | 1028.5 |
| 20260504181539 | 25 | 309 | 0.0 | 4.8 | 0.00 | 0.00 | 0.00 | 38 | 1028.2 |
| 20260504181037 | 25 | 276 | 3.2 | 14.5 | 0.00 | 0.00 | 0.00 | 38 | 1028.4 |
| 20260504180536 | 24 | 341 | 6.4 | 11.3 | 0.00 | 0.00 | 0.00 | 37 | 1028.5 |
| 20260504180034 | 25 | 110 | 8.0 | 9.7 | 0.00 | 0.00 | 0.00 | 36 | 1028.6 |
| 20260504175531 | 25 | 236 | 6.4 | 6.4 | 0.00 | 0.00 | 0.00 | 39 | 1028.5 |
| 20260504175028 | 24 | 250 | 6.4 | 9.7 | 0.00 | 0.00 | 0.00 | 40 | 1028.7 |
| 20260504174526 | 23 | 253 | 0.0 | 11.3 | 0.00 | 0.00 | 0.00 | 38 | 1028.7 |
| 20260504174022 | 25 | 205 | 4.8 | 6.4 | 0.00 | 0.00 | 0.00 | 38 | 1028.5 |
| 20260504173519 | 25 | 236 | 4.8 | 8.0 | 0.00 | 0.00 | 0.00 | 40 | 1028.6 |
| 20260504173017 | 23 | 11 | 9.7 | 16.1 | 0.00 | 0.00 | 0.00 | 41 | 1028.5 |
| 20260504172513 | 25 | 0 | 1.6 | 8.0 | 0.00 | 0.00 | 0.00 | 38 | 1028.6 |
| 20260504172009 | 24 | 40 | 3.2 | 4.8 | 0.00 | 0.00 | 0.00 | 37 | 1028.8 |
| 20260504171506 | 23 | 295 | 3.2 | 9.7 | 0.00 | 0.00 | 0.00 | 38 | 1029.0 |
| 20260504171003 | 26 | 265 | 3.2 | 8.0 | 0.00 | 0.00 | 0.00 | 40 | 1029.1 |
| 20260504170459 | 23 | 193 | 9.7 | 11.3 | 0.00 | 0.00 | 0.00 | 40 | 1029.2 |
| 20260504160419 | 21 | 279 | 3.2 | 12.9 | 0.00 | 0.00 | 0.00 | 48 | 1030.1 |
| 20260504150843 | 20 | 240 | 4.8 | 8.0 | 0.00 | 0.00 | 0.00 | 56 | 1030.5 |
| 20260504150339 | 20 | 23 | 0.0 | 4.8 | 0.00 | 0.00 | 0.00 | 54 | 1030.2 |
| 20260504141310 | 19 | 278 | 0.0 | 6.4 | 0.00 | 0.00 | 0.00 | 61 | 1030.5 |
| 20260504140806 | 18 | 338 | 3.2 | 8.0 | 0.00 | 0.00 | 0.00 | 63 | 1030.6 |
| 20260504140302 | 18 | 188 | 3.2 | 4.8 | 0.00 | 0.00 | 0.00 | 63 | 1030.4 |